User: anonymous   Login
Location: Milton Keynes
(52.0316°N, 0.7531°W)
Time: 01:07:06
(UTC+00:00)
Language:

Genesis I - Orbit

View from above orbital plane
View from above orbital plane
View from above satellite
View from above satellite

Ground track
Ground track

The orbit data is extracted from the following two-line orbital elements,

1 29252U 06029A   19052.85719414  .00000427  00000-0  30882-4 0  9991
2 29252  64.5009  76.5396 0054034 258.6488 100.8561 15.17582889695082
Epoch (UTC): 21 February 2019 20:34:21
Eccentricity: 0.0054034
inclination: 64.5009°
perigee height: 476 km
apogee height: 550 km
right ascension of ascending node: 76.5396°
argument of perigee: 258.6488°
revolutions per day: 15.17582889
mean anomaly at epoch: 100.8561°
orbit number at epoch: 69508

The dashed part of the orbit path shows where the satellite is in the earth's shadow,  

DLR